Location: LDNL
(36.4545°S, 141.6685°E)
Time: 10:48:32
(UTC+10:00)

Tiros 1 despin weight - All Passes

Search period start: 08 August 2022 00:00
Search period end: 18 August 2022 00:00
Orbit: 592 x 638 km, 48.2° (Epoch: 07 August)

Date Brightness Start Highest point End Pass type
(mag) Time Alt. Az. Time Alt. Az. Time Alt. Az.
08 Aug - 00:10:55 10° NNE 00:13:20 14° NE 00:15:47 10° E night (unlit)
08 Aug - 01:49:37 10° NW 01:54:16 86° NE 01:59:00 10° SE night (unlit)
08 Aug - 03:32:11 10° WSW 03:36:14 28° SSW 03:40:19 10° SE visible
08 Aug - 05:15:29 10° SW 05:18:55 19° S 05:22:21 10° SE visible
08 Aug - 06:57:15 10° SW 07:01:32 32° SSE 07:05:45 10° E visible
08 Aug - 08:38:38 10° WSW 08:43:18 64° NW 08:47:54 10° NE daylight
09 Aug - 00:24:36 10° NNW 00:28:33 29° NE 00:32:35 10° ESE night (unlit)
09 Aug - 02:05:19 10° WNW 02:09:53 54° SSW 02:14:31 10° SE night (unlit)
09 Aug - 03:48:31 10° WSW 03:52:11 22° S 03:55:52 10° SE visible
09 Aug - 05:31:19 10° SW 05:34:57 21° S 05:38:34 10° ESE visible
09 Aug - 07:12:41 10° SW 07:17:18 49° SSE 07:21:51 10° ENE daylight
09 Aug - 08:54:30 10° WSW 08:58:42 32° NW 09:02:49 10° NNE daylight
10 Aug - 00:39:24 10° NW 00:43:55 57° NE 00:48:31 10° ESE night (unlit)
10 Aug - 02:21:22 10° W 02:25:37 34° SSW 02:29:57 10° SE night (unlit)
10 Aug - 04:04:46 10° SW 04:08:12 19° S 04:11:39 10° SE visible
10 Aug - 05:46:54 10° SW 05:50:55 26° SSE 05:54:54 10° ESE visible
10 Aug - 07:28:10 10° SW 07:32:56 86° SE 07:37:37 10° NE daylight
10 Aug - 09:11:04 10° W 09:13:56 16° NW 09:16:46 10° NNW daylight
10 Aug - 23:15:13 10° N 23:18:21 18° NE 23:21:32 10° E night (unlit)
11 Aug - 00:54:47 10° WNW 00:59:25 77° SW 01:04:08 10° SE night (unlit)
11 Aug - 02:37:37 10° WSW 02:41:30 25° SSW 02:45:25 10° SE night (unlit)
11 Aug - 04:20:46 10° SW 04:24:14 20° S 04:27:42 10° SE visible
11 Aug - 06:02:21 10° SW 06:06:45 37° SSE 06:11:08 10° E visible
11 Aug - 07:43:50 10° WSW 07:48:24 50° NW 07:52:55 10° NNE daylight
11 Aug - 23:29:25 10° NNW 23:33:37 36° NE 23:37:54 10° ESE night (unlit)
12 Aug - 01:10:37 10° W 01:15:04 45° SSW 01:19:36 10° SE night (unlit)
12 Aug - 02:53:56 10° WSW 02:57:28 21° S 03:01:02 10° SE night (unlit)
12 Aug - 04:36:29 10° SW 04:40:14 23° SSE 04:43:59 10° ESE visible
12 Aug - 06:17:47 10° SW 06:22:29 60° SSE 06:27:07 10° ENE visible
12 Aug - 07:59:52 10° WSW 08:03:44 25° NW 08:07:33 10° N daylight
12 Aug - 22:07:00 10° NE 22:08:12 11° NE 22:09:24 10° ENE night (unlit)
12 Aug - 23:44:27 10° NW 23:49:00 72° NE 23:53:41 10° ESE night (unlit)
13 Aug - 01:26:45 10° W 01:30:52 30° SSW 01:35:02 10° SE night (unlit)
13 Aug - 03:10:06 10° SW 03:13:30 19° S 03:16:55 10° SE visible
13 Aug - 04:52:00 10° SW 04:56:09 29° SSE 05:00:18 10° E visible
13 Aug - 06:33:18 10° WSW 06:38:03 77° NW 06:42:43 10° NE visible
13 Aug - 08:17:02 10° WNW 08:18:55 12° NW 08:20:48 10° NNW daylight
13 Aug - 22:19:46 10° N 22:23:22 23° NE 22:27:02 10° E night (unlit)
14 Aug - 00:00:01 10° WNW 00:04:33 63° SSW 00:09:14 10° SE night (unlit)
14 Aug - 01:43:03 10° WSW 01:46:46 23° SSW 01:50:32 10° SE night (unlit)
14 Aug - 03:26:00 10° SW 03:29:32 20° S 03:33:04 10° SE visible
14 Aug - 05:07:26 10° SW 05:11:57 43° SSE 05:16:27 10° E visible
14 Aug - 06:49:03 10° WSW 06:53:28 39° NW 06:57:49 10° NNE visible
14 Aug - 22:34:19 10° NNW 22:38:40 46° NE 22:43:08 10° ESE night (unlit)
15 Aug - 00:15:57 10° W 00:20:16 38° SSW 00:24:39 10° SE night (unlit)
15 Aug - 01:59:19 10° SW 02:02:46 20° S 02:06:13 10° SE night (unlit)
15 Aug - 03:41:37 10° SW 03:45:30 24° SSE 03:49:23 10° ESE visible
15 Aug - 05:22:52 10° SW 05:27:37 73° SE 05:32:19 10° ENE visible
15 Aug - 07:05:19 10° W 07:08:44 20° NW 07:12:07 10° N daylight
15 Aug - 21:10:43 10° NNE 21:13:11 14° NE 21:15:40 10° E night (unlit)
15 Aug - 22:49:32 10° NW 22:54:07 90° ENE 22:58:48 10° SE night (unlit)
16 Aug - 00:32:09 10° WSW 00:36:06 27° SSW 00:40:06 10° SE night (unlit)
16 Aug - 02:15:24 10° SW 02:18:47 19° S 02:22:12 10° SE night (unlit)
16 Aug - 03:57:05 10° SW 04:01:22 33° SSE 04:05:39 10° E visible
16 Aug - 05:38:27 10° WSW 05:43:07 61° NW 05:47:44 10° NE visible
16 Aug - 21:24:27 10° NNW 21:28:23 29° NE 21:32:24 10° ESE night (unlit)
16 Aug - 23:05:15 10° WNW 23:09:43 51° SSW 23:14:17 10° SE night (unlit)
17 Aug - 00:48:27 10° WSW 00:52:02 21° S 00:55:39 10° SE night (unlit)
17 Aug - 02:31:10 10° SW 02:34:48 21° S 02:38:25 10° ESE night (unlit)
17 Aug - 04:12:30 10° SW 04:17:07 51° SSE 04:21:42 10° ENE visible
17 Aug - 05:54:19 10° WSW 05:58:29 31° NW 06:02:36 10° NNE visible
17 Aug - 21:39:17 10° NW 21:43:44 59° NE 21:48:17 10° ESE night (unlit)
17 Aug - 23:21:18 10° W 23:25:27 33° SSW 23:29:42 10° SE night (unlit)
